Location: *
(51.2167°N, 10.0667°E)
Time: 18:44:50
(UTC+00:00)

ISS - Visible Passes

Search period start: 05 March 2021 00:00
Search period end: 15 March 2021 00:00
Orbit: 417 x 422 km, 51.6° (Epoch: 05 March)

Date Brightness Start Highest point End Pass type
(mag) Time Alt. Az. Time Alt. Az. Time Alt. Az.
05 Mar -3.9 03:57:03 74° WNW 03:57:18 83° N 04:00:41 10° E visible
06 Mar -1.8 03:11:24 28° E 03:11:24 28° E 03:13:10 10° E visible
06 Mar -3.7 04:44:22 19° W 04:46:37 63° SSW 04:49:56 10° ESE visible
07 Mar -3.9 03:58:45 65° WSW 03:59:09 78° SSW 04:02:31 10° ESE visible
08 Mar -2.0 03:13:11 30° E 03:13:11 30° E 03:15:02 10° E visible
08 Mar -2.9 04:46:09 17° W 04:48:17 35° SSW 04:51:23 10° SE visible
09 Mar -3.5 04:00:39 47° SW 04:00:52 48° SSW 04:04:08 10° SE visible
10 Mar -1.8 03:15:15 24° SE 03:15:15 24° SE 03:16:46 10° ESE visible
10 Mar -2.0 04:48:14 14° WSW 04:49:47 18° SW 04:52:09 10° S visible
11 Mar -2.4 04:02:57 24° SSW 04:02:57 24° SSW 04:05:17 10° SSE visible
12 Mar -1.1 03:17:49 12° SE 03:17:49 12° SE 03:18:10 10° SE visible
